Showing default

ORBCOMM FM 118, 41183

Orbit data source: Space-Track

ORBCOMM FM 118, 41183 is a payload satellite owned by Orbcomm (US) in LEO that was launched on Tue, 22 Dec 2015 UTC via an FALCON 9 launch vehicle from the Air Force Eastern Test Range (AFETR). Payload-class satellites include a variety of spacecraft equipped with specific instruments for various scientific and technological missions. These include communications satellites like Starlink; space stations such as the ISS; scientific satellites like the Hubble; Earth observation satellites from companies like Planet Labs, Umbra, and HawkEye 360; GPS; miniature CubeSats for education and research; and military/defense satellites.

Loading next visibility...
Identifier
41183, 2015-081E
Orbit
LEO
Country
Flag of USUS / ORB
Related business
Manufacturer
SNC Louisville
Mission
Operational Commercial Communications
Bus & Motor
SN-100A, Unknown motor
Mass
172 kg wet, 158 kg dry
Launch date (UTC)
2015-12-22 (10 years ago)
Launch vehicle
FALCON 9
Launch site
Air Force Eastern Test Range (AFETR)
Object type
Payload
Rocket body
Debris
Shape & HBR
Box + 1 Pan + 1 Ant, 5.3 m
Radar Cross Section
2.222 m², Medium (>0.1 m² and < 1m²)

Expand to show TLE details & history
Last TLE update: 11 hours ago

TLE from 11 hours ago
0 ORBCOMM FM 118
1 41183U 15081E   26129.51152420  .00000330  00000-0  10612-3 0  9991
2 41183  47.0032 184.6303 0003875 229.0042 131.0509 14.58840788552084
Epoch: 2026-05-09T12:16Z
TLE epoch observation values (Epoch: 2026-05-09T12:16:35.690Z)
Latitude
-0.00003°
Longitude
133.15365°
Altitude
698.936 km
Speed
7.507 km/s
True Right ascension
12h 18m 31s
True Declination
0° 00' 00"
Sunlit
Object was in full shadow at epoch
Visualization orbit readout
Latitude
Unknown
Longitude
Unknown
Altitude
Unknown
Speed
Unknown
Apparent Right ascension
Unknown
Apparent Declination
Unknown
Sunlit
N/A
Visualization observer readout
Local Sidereal Time
07:36:40
Azimuth
Unknown
Elevation
Unknown
Doppler factor
Unknown
Orbital elements
Apogee altitude
700.896 km
Perigee altitude
695.412 km
Semi-major axis
7,076.291 km
Eccentricity
0.00039
Inclination
47.0032°
RAAN
184.6303°
Arg. of periapsis
229.0042°
True anomaly
131.08438°
Mean anomaly
131.0509°
Eccentric anomaly
131.06764°
Mean motion
3.64615 °/min
Orbital period
98.73 mins
BSTAR
0.00010612
Loading maneuver chart data...
Computing Atmospheric mass density...
Loading historical data...
Loading historical data...
Loading historical data...
Loading historical data...
Loading historical data...
Loading historical data...
Loading historical data...

Documentation

Showing up to 5 results
|